Hourly Data Report for July 08, 2017

QUALICUM BEACH AIRPORT
BRITISH COLUMBIA

49°20'14.000" N
124°23'38.000" W
58.20 m
1026562
71766
VOQ

Download Data

Hourly Data (July 2017)
Hourly Data Report for July 8, 2017
TIME
LST
Temp Definition
°C
Dew Point Definition
°C
Rel Hum Definition
%
Precip. Amount Definition
mm

Wind Dir Definition
10's deg

Wind Spd Definition
km/h
Visibility Definition
km
Stn Press Definition
kPa
Hmdx Definition


Wind Chill Definition


Weather Definition


00:00 15.3 12.2 82 0.0 28 2   101.44     LegendNANA
01:00 15.7 11.9 78 0.0 28 7   101.45     LegendNANA
02:00 15.7 11.8 78 0.0 28 6   101.46     LegendNANA
03:00 15.1 11.5 79 0.0 28 7   101.44     LegendNANA
04:00 13.5 11.1 86 0.0 27 5   101.45     LegendNANA
05:00 13.1 11.0 87 0.0 25 3   101.45     LegendNANA
06:00 15.9 12.1 78 0.0 28 3   101.45     LegendNANA
07:00 18.2 11.3 64 0.0 33 7   101.42     LegendNANA
08:00 18.8 11.8 64 0.0 35 4   101.39     LegendNANA
09:00 19.4 10.3 56 0.0 31 12   101.40     LegendNANA
10:00 20.3 10.6 54 0.0 34 9   101.34     LegendNANA
11:00 21.1 12.2 57 0.0 2 7   101.29     LegendNANA
12:00 21.0 12.1 57 0.0 35 8   101.26     LegendNANA
13:00 21.7 10.5 49 0.0 35 8   101.21     LegendNANA
14:00 23.7 9.7 41 0.0 33 6   101.13 25   LegendNANA
15:00 24.3 8.9 38 0.0 3 7   101.04 25   LegendNANA
16:00 24.4 9.5 39 0.0 8 6   100.98 25   LegendNANA
17:00 25.0 10.9 41 0.0 10 6   100.90 27   LegendNANA
18:00 23.9 11.5 46 0.0 11 6   100.87 26   LegendNANA
19:00 24.5 11.2 43 0.0 12 5   100.87 26   LegendNANA
20:00 23.4 12.5 50 0.0 28 3   100.86 26   LegendNANA
21:00 20.5 16.6 79 0.0 11 1   100.91 26   LegendNANA
22:00 19.6 16.5 82 0.0 0 1   100.92     LegendNANA
23:00 19.1 17.1 88 0.0   0   100.92     LegendNANA

Notes on Data Quality.

Legend

  • E = Estimated
  • M = Missing
  • NA = Not Available*
  • [empty] = Indicates an unobserved value
Date modified: